Regional Weather Roundup
Issued by NWS Cleveland, OH

Home | Current Version | Previous Version | Graphics & Text | Print | Product List | Glossary On
Versions: 1 2 3 4 5 6 7 8 9 10 11 12 13 14 15 16 17 18 19 20 21 22 23 24 25 26 27 28 29 30 31 32 33 34 35 36 37 38 39 40 41 42 43 44 45 46 47 48 49 50
884
ASUS41 KCLE 231512
RWRCLE
OHIO REGIONAL WEATHER ROUNDUP
NATIONAL WEATHER SERVICE WILMINGTON, OH
1000 AM EST TUE JAN 23 2018

NOTE: "FAIR" INDICATES FEW OR NO CLOUDS BELOW 12,000 FEET WITH NO
SIGNIFICANT WEATHER AND/OR OBSTRUCTIONS TO VISIBILITY.

OHZ001>008-015>018-024>027-034-035-043-044-231600-
   NORTHWEST OHIO

CITY           SKY/WX    TMP DP  RH WIND       PRES   REMARKS
DEFIANCE       CLOUDY    37  33  85 SW16G25   29.63R
FINDLAY        CLOUDY    38  33  82 SW15      29.64R
TOLEDO EXPRESS CLOUDY    38  36  92 SW17G25   29.61R
TOLEDO EXEC    CLOUDY    39  34  82 SW20      29.62S
LIMA           CLOUDY    36  33  89 SW23G30   29.67R
$$

OHZ009>014-019>023-028>033-038-089-231600-
   NORTHEAST OHIO

CITY           SKY/WX    TMP DP  RH WIND       PRES   REMARKS
CLE-HOPKINS    CLOUDY    40  35  83 SW15      29.65R
CLE-LAKEFRONT  CLOUDY    40  34  79 SW17      29.62R
CUY CO. ARPT   CLOUDY    41  34  75 SW17G23   29.62R
LORAIN-ELYRIA  LGT RAIN  38  32  79 SW20      29.64R
ASHTABULA      PTSUNNY   41  37  86 SW12      29.60R
AKRON-CANTON   CLOUDY    40  34  79 W12G25    29.65R
WOOSTER        CLOUDY    38  34  85 SW14      29.66R
MANSFIELD      MIX PCPN  37  34  89 SW16G25   29.65R
YOUNGSTOWN     CLOUDY    41  35  79 SW20G25   29.61R
$$

OHZ042-051>053-060>062-070>072-077>081-231600-
  SOUTHWEST OHIO

CITY           SKY/WX    TMP DP  RH WIND       PRES   REMARKS
CINC-COVINGTON CLOUDY    38  33  82 W16G23    29.80R
CINC-LUNKEN    CLOUDY    39  33  79 SW14G21   29.83R
HAMILTON       LGT RAIN  38  34  85 SW9       29.82R
DAYTON         CLOUDY    36  33  89 SW23G30   29.75R
WRIGHT-PAT AFB MOSUNNY   36  31  82 SW18G25   29.75R
DAYTON GENERAL CLOUDY    37  31  78 W12G20    29.77R
WILMINGTON     LGT RAIN  36  33  89 W18G31    29.77R
$$

OHZ036-037-039>041-045>050-054>059-063>069-073>076-082>088-231600-
  CENTRAL AND SOUTHEAST OHIO

CITY           SKY/WX    TMP DP  RH WIND       PRES   REMARKS
COLUMBUS       LGT RAIN  39  33  79 SW15G23   29.74R
OSU AIRPORT    LGT RAIN  38  34  85 SW20G30   29.72R
BOLTON FIELD   CLOUDY    37  34  87 SW18G26   29.74R
RICKENBACK AFB DRIZZLE   38  34  84 SW17      29.74R
NEWARK         CLOUDY    39  32  76 SW15      29.72R
MARION         MIX PCPN  37  33  85 SW16G24   29.68R
LANCASTER      CLOUDY    40  32  73 SW14G21   29.75R
ZANESVILLE     CLOUDY    40  31  70 W12G26    29.73R
NEW PHILLY     CLOUDY    41  34  76 W9G21     29.70R
$$




USA.gov is the U.S. government's official web portal to all federal, state and local government web resources and services.